Satellite-Ground Cal/Val Site Overpasses Predictions

Prediction of Satellite NPP Overpassing Cal/Val Site: Antarctic Dome C

Ground Cal/Val Site Location: Latitude: -75.10, Longitude: 123.35; Satellite-Ground Site NADIR distance within 100 km.

Table of predicted overpasses for the next 14.0 days since TLE Epoch: 12/10/2016
Interval Starting Time Ending Time Minimum Distance Time Minimum Distance (km)
1 12/12/2016 14:55:31 12/12/2016 14:55:59 12/12/2016 14:55:45 22.54
2 12/13/2016 14:36:48 12/13/2016 14:37:03 12/13/2016 14:36:56 84.59
3 12/14/2016 07:38:21 12/14/2016 07:38:48 12/14/2016 07:38:35 39.55
4 12/15/2016 07:19:34 12/15/2016 07:19:55 12/15/2016 07:19:44 70.37
5 12/17/2016 15:01:49 12/17/2016 15:02:12 12/17/2016 15:02:01 59.73
6 12/18/2016 14:42:59 12/18/2016 14:43:24 12/18/2016 14:43:11 49.60
7 12/19/2016 07:44:40 12/19/2016 07:44:59 12/19/2016 07:44:49 74.73
8 12/20/2016 07:25:46 12/20/2016 07:26:14 12/20/2016 07:26:00 32.99
9 12/22/2016 15:08:14 12/22/2016 15:08:19 12/22/2016 15:08:16 97.54


<
